Вернуться в каталог

COSMOS 1275 DEB

АктивенPO
NORAD 13812·DEBRIS·🇷🇺 Russia

Запущен Jun 4, 1981 с Plesetsk Cosmodrome

Loading…

Ближайшие Пролёты (ближайшие 24 часа)

TLE

СвежийSource: Space-Track

Эпоха: Sep 14, 2026, 02:26 UTC

1 13812U 81053HG  26257.10205116  .00002968  00000-0  93485-3 0  9997
2 13812  83.2450 296.3757 0032288  46.4933 343.2365 14.39814528238600

Отслеживайте COSMOS 1275 DEB в реальном времени с AllMySat

Download on the App Store